星链-11145 [DTC] (STARLINK-11145 [DTC] )

导读 | 豆包AI

STARLINK-11145是美国于2024年6月5日发射的星链卫星,隶属于SpaceX公司的星链星座项目。星链计划旨在通过大规模低轨卫星组网,为全球提供高速互联网覆盖。该卫星入轨后,将与其他星链卫星协同工作,进一步拓展星座的服务能力,提升全球尤其是偏远地区的网络接入覆盖范围。

基本信息
目录编号:
59945
目录名称:
STARLINK-11145
国际标识:
2024-107A
轨道中心:
EARTH
卫星名称:
星链-11145 [DTC]
卫星全名:
星链-11145 [DTC] (STARLINK-11145 [DTC] )
卫星状态:
在轨 (已飞行719 天)
发射日期:
2024-06-05 UTC
国别 :
美国 (US)
星等 :
--
轨道信息
数据来源 国际轨道数据
星历时间: 2026-05-24T02:26:00+0800
1天前
查看轨道信息
半长轴: 6737.855km
偏心率: 0.000135
轨道倾角: 53.160°
近地点辐角 109.845°
升交点赤经 241.462°
平近点角 250.271°
近地点: 358.808km
远地点: 360.628km
周期: 91.736分钟
每日圈数: 15.697133
详细信息
固有亮度:
5
最大亮度:
0.3
卫星平台:
Starlink v2.0 mini
覆盖范围:
全球
运营商:
太空探索技术公司
运营商所在国:
美国
制造商(研发单位):
太空探索技术公司
制造商所在国:
美国
使用方式:
暂无
卫星简介
星链(Starlink)计划是由太空探索技术公司(SpaceX)提出的一个巨型低轨卫星互联网星座项目,计划在2019年至2024年间在太空搭建由约1.2万颗卫星组成的“星链”网络,其中1584颗将部署在地球上空550千米处的近地轨道,并从2020年开始工作。该卫星仍在工作。
2D轨道图
3D轨道图
轨道高度分析图
轨道倾角分析图
轨道综合分析图
查看轨道综合分析图